RH
5 5 5 4 4 3 3 2 2 2 2 3 3 3 3 3 3 3 3 2 3 2 2 2 2 2 2 2 2 2 3 2 3 3 3 3 2 2 2 2 2 2 3 3 4 4 4 5 5 5 5 5 5 6 6 9 16 23 32 43 46 41 34 26 23 22 21 19 15 13 12 11 12 13 16 18 20 23 32 44 54 63 69 76 85 93 94 90
4 5 5 5 5 4 3 3 3 2 3 3 3 3 3 3 3 3 3 3 3 3 3 3 2 2 2 2 2 3 2 3 3 3 3 3 3 3 2 2 2 2 3 3 4 4 5 5 5 5 4 5 6 6 9 16 18 24 32 38 38 33 26 21 20 21 20 18 15 13 12 12 12 12 13 15 18 20 23 30 39 53 62 72 86 97 98 88
3 3 4 4 4 4 4 4 3 3 3 3 3 3 3 3 3 3 3 3 3 3 3 3 3 3 3 3 3 3 3 3 3 3 3 3 3 3 2 2 2 2 3 3 4 5 5 5 5 5 4 4 4 6 13 18 21 26 32 35 33 27 22 19 21 23 23 22 19 16 13 14 14 14 15 14 17 20 23 24 25 38 51 68 87 96 97 83
2 3 3 3 4 4 4 4 4 4 3 3 3 3 3 3 3 3 3 3 3 3 3 3 3 3 3 3 3 3 3 3 3 4 3 3 3 3 3 3 2 3 3 3 4 5 5 5 5 5 4 4 3 7 14 22 26 28 32 34 28 23 20 20 25 29 30 31 27 22 19 17 15 15 19 19 21 22 24 25 23 28 38 60 84 94 94 81
3 3 3 3 3 3 3 4 4 4 4 4 3 3 3 3 3 3 3 3 4 3 4 4 3 4 3 3 4 4 4 4 4 4 4 4 4 3 3 2 2 3 3 3 4 4 5 5 5 5 4 4 4 6 15 25 26 27 31 29 21 20 22 24 33 38 38 40 36 30 26 23 21 19 22 24 27 27 24 24 24 25 29 46 71 87 91 86
3 3 3 3 3 3 3 3 3 4 4 4 4 4 3 3 3 3 3 3 3 3 4 4 4 4 4 4 4 4 4 4 4 4 4 4 4 4 3 3 3 2 3 3 3 4 5 5 5 5 4 4 5 6 14 21 23 29 28 20 16 19 23 30 41 45 42 41 40 37 32 29 27 26 28 28 29 31 29 26 23 24 26 32 49 69 82 89
3 2 3 2 3 3 3 3 3 3 3 4 4 4 4 4 4 3 3 3 3 4 4 4 4 4 4 4 4 4 4 4 4 4 4 4 4 4 4 3 3 3 3 3 3 4 4 6 5 5 5 5 6 7 12 17 25 33 23 12 16 23 28 37 46 47 42 41 41 40 37 32 30 29 32 32 31 31 32 31 27 25 25 27 33 52 75 88
3 3 3 2 2 2 2 3 3 3 3 3 3 4 4 4 4 4 4 4 4 4 3 4 4 4 4 4 4 4 4 4 4 5 4 4 4 4 4 4 3 3 3 3 3 4 4 6 5 6 5 5 6 6 11 15 22 28 16 10 23 34 43 47 48 46 41 40 40 39 36 33 30 30 32 34 35 33 32 32 31 30 27 29 28 43 78 96
4 4 3 3 3 3 3 2 2 3 2 3 3 3 4 4 4 4 4 4 4 4 4 4 3 4 4 4 4 4 4 4 4 5 4 4 4 4 4 4 3 3 3 3 3 3 4 5 5 6 5 5 6 6 9 11 18 22 13 17 36 48 54 53 49 46 41 39 38 37 35 33 30 32 35 34 37 38 36 31 30 33 30 31 30 36 69 94
3 3 3 3 3 3 3 3 3 3 3 3 2 3 3 3 4 4 4 4 4 4 4 4 4 4 4 4 4 4 4 4 4 4 4 4 4 4 4 4 4 3 3 3 3 4 4 5 6 6 6 6 6 7 8 9 16 19 15 29 49 54 54 53 49 45 42 39 37 39 42 42 39 42 43 39 39 41 42 36 29 32 33 31 32 32 43 64
3 3 3 3 3 3 3 3 3 3 3 3 3 3 3 3 3 3 3 4 4 4 4 4 4 4 4 4 4 4 4 4 4 4 4 4 4 4 4 4 3 3 3 3 3 4 4 5 5 6 6 6 7 8 8 10 18 21 25 42 54 55 55 52 49 46 44 42 40 44 48 52 54 57 55 50 47 45 48 46 34 32 36 34 34 40 42 43
3 3 3 3 3 3 3 3 3 3 3 4 4 3 3 3 3 3 3 3 4 4 4 4 4 4 4 4 4 4 4 4 4 4 4 4 4 4 4 4 3 3 3 3 4 4 5 5 5 7 6 6 8 9 10 15 25 31 38 51 55 56 56 52 51 48 45 45 45 47 51 54 59 64 65 62 58 55 56 54 45 38 37 39 37 45 61 58
4 4 4 4 4 3 4 3 3 4 3 3 4 4 4 3 3 3 3 3 3 3 4 4 4 4 4 4 4 4 4 4 4 4 4 4 4 4 4 4 3 3 3 3 4 5 5 5 6 7 6 7 8 9 14 19 29 40 46 54 58 58 56 55 55 52 47 46 46 50 53 54 57 63 65 65 65 65 63 56 52 48 41 41 41 43 59 69
4 4 4 4 4 4 3 4 4 3 4 3 4 4 4 4 4 3 3 3 3 3 3 4 4 4 4 4 4 4 4 4 4 4 4 4 4 4 4 4 3 3 4 4 5 5 5 5 6 7 7 8 7 9 18 22 29 37 43 52 56 55 56 56 57 56 52 47 47 52 56 56 59 62 62 62 65 68 65 58 53 53 48 43 43 42 45 52
4 4 4 4 3 3 3 3 3 3 4 4 4 4 4 4 4 4 3 3 3 3 3 3 4 4 4 4 4 4 4 4 4 3 3 3 3 4 3 3 3 4 4 5 5 5 6 5 6 7 7 7 7 10 18 25 30 33 41 49 48 51 57 57 56 58 57 52 49 53 56 58 60 61 60 60 64 66 66 61 55 53 54 50 47 45 44 44
4 4 4 4 3 3 3 3 3 3 3 3 3 4 4 4 4 4 4 4 3 3 3 3 4 4 4 4 4 4 4 4 4 3 4 3 3 3 3 4 4 5 5 5 6 6 6 6 6 7 8 8 8 11 16 25 31 34 43 47 44 51 58 57 57 58 58 55 50 52 55 57 59 60 59 58 62 67 66 63 58 54 54 54 52 48 46 46
4 4 3 3 3 3 3 2 3 3 2 3 3 3 4 4 4 4 5 5 4 3 3 3 3 4 4 4 4 4 4 4 4 3 3 3 3 3 3 5 5 6 6 6 6 6 6 7 7 8 8 8 10 13 18 26 32 36 45 50 49 54 57 56 58 56 55 52 49 52 54 55 57 57 58 59 61 65 66 65 61 57 54 53 52 51 48 47
3 3 3 3 3 3 3 3 3 3 3 3 2 3 3 3 4 4 5 5 5 4 4 3 3 4 3 4 4 4 4 4 4 4 3 3 3 4 5 6 6 7 7 7 7 6 7 7 8 8 9 11 14 16 18 26 32 32 40 49 49 50 51 52 55 53 53 51 48 50 52 53 55 55 59 61 61 63 65 67 65 59 56 54 51 50 49 48
3 3 3 3 4 5 5 6 6 6 6 4 3 3 3 3 3 4 4 5 5 5 4 4 3 3 3 4 4 4 4 4 4 3 3 4 4 5 6 7 7 7 7 7 7 7 8 8 8 10 12 14 15 15 18 27 34 29 30 37 39 42 44 49 54 51 52 53 47 47 50 51 53 55 62 67 66 67 65 68 69 60 56 56 54 53 51 49
3 4 5 6 7 7 7 7 8 9 9 6 5 4 4 3 3 4 4 4 5 5 5 5 4 4 4 3 4 4 4 4 4 4 4 5 6 7 7 8 8 8 8 7 7 8 9 9 10 11 11 12 12 15 21 29 35 31 30 37 42 45 46 51 54 46 47 51 45 44 47 48 49 53 64 73 73 71 67 69 69 61 58 59 56 56 57 54
6 6 7 7 6 6 6 6 8 11 9 6 5 4 4 4 3 4 4 4 4 5 6 6 5 4 4 4 4 3 4 4 4 5 6 6 7 8 8 8 8 8 8 7 7 8 9 10 10 9 10 10 11 17 22 27 35 37 41 49 50 48 45 47 49 42 40 42 41 43 45 47 51 57 69 75 75 73 70 71 70 67 65 59 53 53 55 56
7 7 6 6 6 7 5 6 10 11 7 5 4 3 4 4 4 4 4 4 4 5 6 6 6 5 4 4 4 4 4 4 5 6 7 7 8 8 8 8 8 8 7 7 7 8 9 10 11 11 12 12 13 18 20 27 40 46 47 51 49 44 40 41 45 44 41 40 44 48 48 52 59 66 73 74 74 74 72 72 72 70 65 54 49 51 52 53
6 6 6 6 7 7 6 10 12 9 5 4 4 4 5 5 5 4 4 5 5 5 6 6 7 6 6 6 5 5 5 5 7 7 8 8 8 9 8 8 8 7 7 8 9 10 11 13 14 15 17 16 16 18 20 31 46 47 44 44 42 38 38 40 42 42 41 43 49 53 54 59 66 70 72 71 74 76 73 71 68 62 59 55 52 52 52 52
6 7 7 8 8 7 9 13 12 7 5 5 4 4 5 5 5 5 5 5 5 6 6 7 8 8 8 8 7 7 7 7 8 8 9 8 8 8 8 8 8 8 9 11 13 14 15 17 18 20 22 20 17 15 19 32 41 37 35 39 37 36 40 40 39 38 40 46 52 56 60 63 66 69 70 69 73 76 72 69 67 62 63 67 59 51 53 53
8 9 8 9 8 8 12 14 9 6 6 6 5 5 5 5 6 5 5 5 6 7 7 7 8 8 9 8 8 8 8 8 8 8 8 7 8 8 8 8 8 9 11 13 15 16 21 23 20 22 25 22 17 14 18 27 32 30 33 39 41 41 40 35 38 43 44 49 54 57 60 63 65 68 69 69 71 74 72 70 70 66 65 68 58 48 50 52
9 9 9 10 8 10 15 12 6 6 7 6 6 6 6 6 6 6 6 6 6 7 8 8 7 8 8 8 8 8 7 8 8 8 8 8 9 8 8 9 9 11 13 14 16 20 29 31 25 25 26 22 17 14 17 23 29 33 35 40 44 41 33 32 44 53 51 52 56 56 57 58 61 67 69 69 69 71 72 70 68 63 58 57 53 47 46 47
10 9 9 9 8 13 17 10 6 7 7 7 7 7 7 7 7 6 6 6 6 6 6 6 8 8 7 7 7 7 8 8 9 9 9 9 9 8 9 10 10 12 12 16 24 29 35 33 24 23 22 18 16 15 19 25 31 36 33 34 39 36 33 41 52 56 54 53 52 53 53 50 54 63 68 70 70 71 71 67 61 57 53 51 51 51 47 43
10 9 9 9 11 17 16 8 6 7 7 8 7 8 8 7 8 8 7 6 6 7 7 9 13 11 9 9 8 7 9 9 9 10 10 10 9 9 10 10 12 14 12 20 33 33 29 25 19 18 18 17 19 19 24 29 33 38 38 37 41 43 46 51 54 53 53 53 51 49 49 47 49 57 65 71 71 68 68 64 59 54 52 49 49 52 48 41
10 10 10 10 15 20 14 8 7 7 8 8 8 9 9 11 16 16 12 12 11 11 12 16 17 13 11 12 9 8 10 10 10 10 11 10 10 10 12 13 14 16 16 21 32 30 24 22 18 16 17 18 21 20 22 30 36 41 46 47 49 53 54 51 50 50 50 52 50 46 46 47 49 53 64 71 70 66 64 63 60 56 53 49 47 50 49 44
10 10 10 12 19 20 12 8 7 7 8 8 8 9 13 21 28 25 21 23 22 19 19 18 15 13 13 12 10 10 12 13 12 10 11 10 10 12 15 17 17 18 20 24 28 28 27 28 24 20 18 17 19 18 19 29 36 43 51 52 50 51 48 45 45 46 49 49 47 44 44 46 48 52 60 67 68 65 63 62 64 64 58 50 47 48 48 47
10 11 11 15 22 20 13 9 8 8 8 9 11 14 21 30 32 27 24 25 24 21 18 15 14 14 13 11 12 12 13 15 13 11 13 12 13 15 17 20 20 19 23 26 25 27 33 41 40 33 27 21 19 19 21 28 33 41 50 50 47 46 43 43 42 42 46 46 45 44 42 42 47 54 60 65 67 66 64 63 64 67 62 53 48 45 46 47
11 11 13 20 24 20 14 9 9 9 8 11 16 21 29 34 33 27 21 21 22 19 20 24 26 22 18 18 16 15 16 18 15 14 15 15 16 20 22 24 25 24 26 26 23 28 44 56 53 44 36 25 22 22 22 25 28 37 47 47 44 44 42 41 40 42 44 43 44 42 41 45 50 56 63 66 67 65 64 62 61 63 60 54 50 46 44 45
11 12 16 23 26 21 15 10 9 10 10 16 23 29 36 37 35 28 20 21 25 25 34 44 44 38 34 31 26 24 25 24 23 21 20 19 19 21 22 23 24 26 28 29 29 35 49 60 59 52 46 35 26 24 25 27 27 33 43 45 42 42 42 40 38 41 42 42 43 40 43 49 51 60 67 64 64 64 61 59 59 59 56 54 52 49 47 45
11 14 19 25 26 22 17 12 10 10 14 21 27 35 41 39 37 31 22 23 27 32 42 50 50 49 48 45 41 40 37 32 30 29 27 26 24 24 27 27 25 27 34 42 47 48 52 61 63 59 56 49 36 29 30 32 31 32 35 40 41 38 38 38 36 39 41 41 41 41 50 56 55 62 66 58 59 62 59 57 57 55 54 55 55 52 50 48
12 15 21 26 26 22 19 16 12 11 15 19 25 37 43 39 36 33 26 25 30 40 46 47 50 52 51 52 52 49 45 42 42 42 40 39 37 37 41 42 38 35 41 53 59 58 56 61 65 61 59 57 49 43 41 35 32 35 33 33 36 35 33 34 34 35 36 38 39 43 52 56 53 55 56 53 54 55 55 55 54 53 53 56 59 55 54 53
12 17 21 25 26 22 20 19 15 13 15 20 32 43 44 38 35 33 29 29 36 45 48 45 46 46 45 46 48 49 50 52 54 54 51 50 50 50 49 48 45 44 47 55 60 59 58 60 63 62 61 60 55 52 49 42 36 39 39 36 35 34 32 34 36 36 34 34 39 43 48 51 50 50 51 50 49 48 51 53 52 52 52 56 59 56 56 58
12 17 21 24 24 20 19 20 21 23 30 41 51 54 48 42 37 33 31 34 39 44 47 47 43 40 40 41 43 47 50 51 54 53 50 49 51 50 46 40 39 42 44 48 55 56 54 59 62 60 59 60 56 50 47 45 40 39 42 44 43 41 37 35 37 39 37 36 40 43 47 52 50 48 49 47 44 46 51 52 52 53 55 58 59 56 57 59
12 16 22 23 21 19 19 22 29 39 50 60 62 59 58 54 46 38 34 35 39 42 46 48 44 41 44 46 48 50 49 48 48 45 43 43 43 42 41 36 35 39 38 39 48 51 48 55 62 61 58 57 55 49 45 44 41 38 39 42 44 46 45 42 40 40 39 38 39 41 45 48 47 46 47 44 42 44 48 51 53 55 58 59 56 56 57 57
12 16 20 20 18 19 19 22 32 42 52 62 63 61 64 62 53 44 36 34 37 41 45 46 44 44 44 45 49 51 50 48 43 38 38 38 37 35 35 35 35 37 37 39 45 48 47 49 54 58 55 49 48 51 50 45 40 39 38 38 39 41 44 45 45 44 43 42 42 43 45 48 50 51 49 46 44 43 43 47 51 53 54 52 52 55 55 54
11 15 16 15 16 16 16 20 29 38 46 56 61 62 61 57 51 44 38 34 34 36 42 46 47 48 44 41 44 48 50 46 37 33 34 33 33 32 31 33 35 34 35 35 35 38 41 41 43 49 50 43 40 45 50 50 47 44 42 41 41 42 43 44 45 46 46 45 45 46 48 51 53 53 53 53 51 47 44 46 47 46 45 43 45 50 51 52
11 13 14 13 13 14 14 17 25 33 40 47 54 56 51 45 42 41 39 37 36 35 40 47 48 48 46 43 44 47 48 45 37 33 33 32 31 31 29 30 34 35 36 37 34 31 31 30 31 37 42 42 40 38 39 43 47 47 48 49 50 52 53 51 49 49 49 48 47 48 51 54 55 54 54 56 57 55 52 49 46 44 42 40 41 46 48 50
12 12 14 12 11 12 13 15 20 29 35 38 42 44 43 37 33 35 38 40 42 40 40 42 41 42 46 46 45 44 43 41 37 34 34 32 30 32 30 28 29 30 31 33 34 30 26 25 24 26 30 34 37 35 31 30 32 35 41 46 49 53 56 57 55 54 52 53 52 52 55 57 57 57 57 57 58 59 57 52 48 46 44 41 43 47 50 51
16 13 13 11 10 10 12 13 17 23 28 30 29 31 33 32 27 27 31 37 41 40 39 41 42 42 43 41 41 43 43 42 40 38 37 35 34 36 34 30 29 29 28 28 28 28 27 26 25 26 27 27 28 28 25 23 24 25 28 32 37 41 44 50 55 56 55 55 55 54 56 59 61 63 62 61 61 61 59 56 52 51 49 48 47 48 50 52
20 16 14 11 10 10 11 12 14 18 21 22 22 24 25 25 23 23 26 31 36 35 35 38 43 46 43 36 34 38 42 43 43 43 43 42 40 37 33 30 29 29 29 28 27 28 29 27 26 26 27 27 27 27 26 24 24 23 23 23 26 27 28 34 44 50 53 54 54 55 55 54 56 60 64 67 67 65 64 62 59 57 55 53 52 50 51 53
21 20 17 14 12 11 11 12 13 15 17 17 19 21 22 20 20 21 22 26 28 29 29 28 31 38 42 39 36 37 38 38 38 39 38 37 35 32 28 28 28 27 28 29 28 29 30 29 29 29 27 26 26 27 29 30 30 29 28 26 25 24 22 24 30 37 43 49 53 56 56 55 56 61 68 74 75 72 69 66 64 63 62 58 55 53 53 54
20 21 21 18 16 14 13 13 13 14 16 17 19 22 22 20 18 18 19 20 20 21 22 20 19 23 29 32 33 34 32 29 29 28 28 28 28 27 26 26 27 27 27 28 28 29 29 29 29 29 29 28 27 26 27 28 30 31 33 33 33 32 30 28 27 28 33 40 47 53 56 60 64 68 73 76 77 77 76 73 70 67 66 63 58 54 55 56
22 21 22 21 19 17 16 16 16 17 18 19 21 24 25 23 19 16 18 18 17 18 17 17 17 17 20 23 24 25 25 23 23 23 23 24 25 25 26 26 26 26 27 27 28 28 28 28 26 24 24 24 24 23 22 22 23 24 25 27 30 32 34 35 34 32 31 33 37 41 47 57 67 73 77 77 73 69 68 73 77 74 69 63 56 52 53 56
24 21 22 22 21 20 19 19 19 19 21 21 23 26 29 29 25 21 21 21 20 20 20 20 21 20 20 21 21 22 22 22 23 23 23 24 24 24 23 23 24 25 26 27 26 25 24 22 18 15 14 13 12 12 11 11 11 11 11 12 13 15 19 24 29 32 34 34 34 34 35 43 52 59 67 71 69 62 58 62 69 70 66 60 54 49 48 54
25 22 22 23 23 22 22 22 21 21 22 23 24 27 31 33 31 27 25 24 23 23 23 23 23 24 24 24 23 24 24 24 24 24 24 23 23 22 21 22 23 24 25 25 24 21 19 15 11 7 6 5 4 4 4 4 4 4 4 4 4 5 5 7 11 15 20 26 31 34 34 35 35 38 43 49 54 54 56 62 64 60 53 48 50 49 44 48
25 22 22 23 24 23 23 24 24 23 24 24 25 26 28 30 31 29 26 25 25 24 24 24 24 25 25 25 25 25 24 24 23 23 23 22 21 21 22 23 23 23 23 22 19 16 13 10 7 4 4 3 3 3 3 3 4 4 4 4 4 4 4 4 5 5 6 10 14 21 28 34 40 44 39 37 42 47 51 61 67 66 61 55 57 62 55 49
25 22 21 23 24 24 24 24 25 25 24 24 25 26 27 27 27 27 25 23 24 24 24 24 24 24 25 25 25 24 23 23 22 22 22 21 20 22 23 23 23 22 20 16 13 10 8 6 4 3 3 3 3 4 3 4 4 4 4 4 4 5 5 6 7 7 7 7 7 10 14 21 38 55 53 51 64 71 65 64 66 66 71 71 65 66 70 63
25 21 21 23 25 26 26 26 26 26 26 26 27 27 27 26 25 24 24 23 23 23 24 24 24 24 23 23 23 23 23 22 21 21 20 19 20 21 23 23 21 18 15 11 8 6 4 4 3 3 4 3 3 4 4 4 4 4 5 5 5 6 6 6 7 8 9 9 9 12 14 16 27 44 54 61 74 79 76 80 84 78 81 83 72 66 73 73
Wind_Speed
13 14 14 14 14 15 15 15 14 14 13 12 11 11 10 10 9 9 9 8 7 7 8 8 7 7 7 7 6 6 6 7 7 8 9 9 10 11 10 10 11 11 12 13 14 15 14 13 12 12 11 10 9 8 8 7 7 6 5 4 5 6 5 3 1 5 6 7 6 5 4 3 2 3 4 4 4 5 5 6 5 5 4 4 4 5 6 6
13 14 14 15 15 15 15 16 16 15 15 14 13 12 12 11 10 10 10 9 8 8 8 8 8 7 7 7 7 6 7 7 7 8 9 9 10 10 10 10 10 11 12 12 13 14 14 13 13 12 10 9 8 8 8 7 8 7 6 5 4 5 4 1 4 7 8 8 7 7 5 5 5 3 2 2 3 4 5 6 6 5 4 4 5 6 6 6
12 13 14 15 16 16 16 16 16 16 16 15 15 14 13 13 12 11 10 10 9 9 9 9 8 8 8 7 7 7 7 7 7 8 8 9 9 10 10 10 10 11 11 12 12 13 13 13 13 13 11 10 8 9 9 7 7 6 6 4 3 3 2 2 7 9 10 10 10 8 6 6 6 6 4 2 2 3 4 5 7 6 5 4 5 7 7 6
11 12 12 14 15 16 16 17 17 17 17 17 16 15 15 14 13 12 11 10 10 10 10 10 9 9 8 8 8 8 8 8 7 7 7 8 9 9 10 10 10 10 11 11 12 12 13 13 13 13 12 10 9 11 10 7 5 5 5 3 2 1 1 5 9 9 11 11 10 9 7 6 6 7 7 5 5 4 3 4 5 7 7 6 5 7 8 7
12 12 12 12 13 14 15 16 17 17 17 18 18 17 16 15 14 13 12 11 11 11 10 10 9 10 9 8 8 8 8 8 7 7 7 7 9 9 9 10 10 10 10 11 11 12 13 13 14 13 12 11 10 11 10 4 2 5 5 4 3 0 3 6 8 9 10 11 10 9 8 7 7 8 8 7 6 6 5 4 4 6 7 7 7 7 8 8
13 14 13 13 13 13 14 14 15 16 17 17 18 18 18 17 16 15 14 13 12 12 11 11 10 10 10 9 9 9 9 8 7 7 7 8 8 9 10 10 10 11 10 11 11 11 12 13 13 13 12 10 9 11 10 6 2 3 6 4 3 1 4 6 8 8 9 10 10 10 9 9 8 9 9 8 8 7 7 5 4 5 6 8 9 9 9 10
14 14 15 15 15 15 14 15 15 15 16 16 17 18 19 19 18 17 15 14 13 13 12 12 11 11 10 10 10 10 9 8 8 8 8 8 8 9 10 10 10 11 10 11 11 11 12 12 13 12 11 9 8 10 10 8 4 2 6 2 2 4 5 5 6 7 8 9 10 10 10 10 9 9 9 10 9 9 9 7 5 4 5 8 10 10 10 10
15 14 15 15 15 15 15 16 16 16 16 16 16 17 18 19 19 18 17 16 15 14 13 12 12 11 11 11 11 11 10 9 8 9 9 8 9 10 10 10 10 10 11 11 11 11 11 11 12 11 10 8 7 8 8 6 4 2 5 1 6 7 6 4 5 5 6 8 10 10 10 11 10 10 10 11 11 11 10 9 7 6 5 6 9 10 10 10
16 16 16 16 16 15 15 16 16 17 17 16 17 17 18 19 20 20 19 18 17 16 14 13 13 12 12 12 12 12 11 10 9 10 10 10 10 10 11 11 10 10 11 11 11 11 11 11 11 11 9 7 6 6 6 5 4 1 3 4 8 8 7 4 4 5 6 8 10 12 12 12 12 11 11 11 11 12 12 11 9 8 6 4 6 9 11 12
16 17 17 17 17 17 17 17 17 17 17 17 17 17 18 18 19 20 20 20 19 18 17 16 15 14 13 13 13 13 13 12 11 11 11 11 11 11 11 11 11 11 11 11 11 11 11 10 10 10 8 6 4 5 5 5 5 1 1 6 9 8 6 5 5 6 7 9 11 13 14 15 14 13 13 11 11 12 13 12 10 8 7 4 4 7 11 13
15 16 16 17 17 18 18 19 19 19 19 18 18 18 18 18 19 20 21 21 21 20 19 18 17 16 15 15 14 14 14 15 13 12 12 12 12 12 11 11 11 11 11 11 11 11 11 10 10 9 7 6 4 3 4 5 5 3 4 7 8 8 6 5 6 7 9 10 11 13 15 16 16 15 13 12 12 12 12 12 11 9 7 6 4 4 8 12
16 17 17 17 18 18 19 19 20 20 20 20 20 19 19 19 19 19 20 21 22 22 21 20 19 18 18 16 15 15 16 16 14 13 13 13 13 12 11 11 11 11 11 11 11 11 11 10 10 8 7 6 2 2 5 6 6 5 6 7 8 8 7 6 7 7 9 11 11 13 13 14 17 16 14 14 14 13 12 11 11 10 8 6 5 3 4 8
18 19 19 20 20 21 21 21 21 21 21 21 21 21 21 20 19 19 19 20 21 22 22 22 21 20 19 18 17 17 17 17 15 14 13 13 13 12 11 11 11 11 11 10 10 10 10 10 9 8 7 4 2 1 4 6 6 7 7 7 8 8 7 7 7 7 9 10 10 12 12 13 16 16 15 15 15 14 12 10 9 9 8 6 4 3 3 5
20 21 22 23 23 24 24 24 24 23 23 22 22 22 22 22 21 20 19 20 20 21 22 22 21 21 20 18 18 18 18 17 16 14 14 13 13 12 11 11 11 10 10 10 10 10 9 9 9 8 6 4 5 2 4 6 6 6 6 7 8 8 7 7 7 7 7 9 10 11 11 12 15 16 15 15 16 14 12 10 8 8 8 6 5 3 3 5
23 23 24 25 26 26 27 27 27 27 26 25 24 24 23 23 23 22 20 19 20 20 21 21 21 21 20 19 19 18 18 17 15 14 14 13 12 12 11 10 10 9 9 9 9 9 8 8 8 7 5 6 6 3 3 3 3 4 6 7 7 8 8 7 6 6 6 7 10 11 10 11 13 15 15 16 16 15 14 11 9 7 7 6 5 5 4 4
26 26 27 27 28 28 28 28 28 29 28 27 26 25 25 24 23 22 22 21 20 19 20 20 20 20 20 20 19 18 17 17 16 15 14 13 13 12 11 10 9 9 9 9 9 9 9 9 8 6 6 7 6 4 1 1 2 1 4 6 5 8 8 6 5 5 5 6 9 11 10 9 11 14 15 15 16 16 16 14 11 8 6 5 5 5 4 4
28 28 28 28 28 28 27 27 27 27 27 27 27 27 27 26 24 23 23 22 21 20 19 19 19 20 20 20 19 18 17 17 17 16 15 14 13 12 11 10 9 9 9 10 10 10 9 8 7 7 7 7 6 4 1 2 3 3 2 5 5 8 8 5 5 5 4 5 7 10 10 9 10 12 14 15 16 17 17 16 13 9 6 5 5 4 4 4
28 28 27 26 25 24 22 22 22 23 23 24 25 26 27 27 26 24 24 24 23 22 20 19 19 20 20 19 18 18 17 17 17 16 15 14 13 12 11 10 9 9 11 12 11 10 9 8 7 7 7 7 6 3 1 1 2 3 1 3 5 8 6 4 4 4 3 4 6 8 10 11 11 12 14 16 16 17 17 17 15 12 9 8 6 5 5 4
25 24 22 21 19 18 17 17 17 18 19 19 21 22 24 26 27 26 25 24 24 23 21 20 19 19 19 18 18 18 17 17 17 16 15 13 12 11 11 10 10 11 13 13 12 10 8 7 7 7 7 8 7 4 1 0 3 3 1 4 5 6 6 5 4 3 3 3 4 7 10 11 12 14 15 16 17 17 17 17 16 13 12 10 9 8 7 5
20 17 16 15 14 14 15 15 15 16 17 17 18 20 21 24 27 28 27 26 24 23 22 21 20 19 18 18 18 18 17 16 16 15 13 12 12 11 11 11 12 13 13 13 11 9 7 7 8 8 9 10 7 3 2 1 2 3 2 5 6 6 7 7 5 3 2 3 5 8 10 10 12 15 15 16 17 16 16 17 16 13 13 12 11 11 10 8
14 12 12 12 12 13 14 14 14 15 15 16 17 18 20 22 25 28 28 26 24 23 21 20 20 19 19 19 18 17 16 16 15 14 13 12 12 11 11 12 12 13 12 11 9 8 7 8 8 9 9 9 6 4 4 2 2 4 6 8 8 7 6 4 3 1 1 5 6 8 10 10 12 14 14 14 15 15 16 17 16 13 13 13 13 13 12 10
11 10 11 11 11 12 13 13 13 13 13 13 13 14 16 19 23 25 25 24 23 22 21 20 20 19 19 19 18 17 16 15 14 14 13 13 12 11 11 12 12 12 11 9 8 7 8 8 8 8 8 7 5 6 6 4 6 9 10 10 8 5 2 1 2 2 3 4 6 9 10 9 10 11 13 14 14 14 16 17 16 14 13 13 15 15 13 10
10 10 10 10 11 12 11 11 11 10 10 9 9 9 12 15 19 21 21 21 21 21 20 19 18 18 17 17 17 16 15 14 14 13 14 13 13 13 12 12 11 11 9 6 5 6 7 7 7 7 7 6 6 8 7 9 11 12 11 10 7 3 2 3 3 2 2 3 4 8 8 7 8 10 13 15 14 13 15 16 15 14 13 13 15 16 13 10
9 9 10 10 11 11 10 9 8 7 6 5 5 7 9 12 15 16 17 18 18 18 17 17 17 16 16 16 16 15 13 13 14 14 14 14 13 12 11 10 9 8 5 3 2 3 5 5 6 7 6 6 8 9 10 11 12 10 9 8 5 2 3 4 4 1 2 4 5 8 8 7 8 10 13 16 15 13 14 16 14 13 15 15 15 15 13 10
9 9 9 10 10 9 8 6 5 3 2 3 4 6 8 10 12 13 14 15 16 15 15 16 16 15 15 15 15 14 13 12 12 12 12 11 10 9 9 8 7 6 5 3 1 1 3 4 7 7 6 8 9 10 12 12 10 7 5 5 5 4 5 6 3 1 4 4 5 7 8 7 9 10 13 16 15 12 13 15 14 13 16 16 15 15 13 11
8 8 8 8 8 7 6 4 1 1 1 3 5 7 9 10 11 12 12 12 12 13 14 13 13 14 14 13 12 12 10 8 7 7 8 8 8 9 9 7 7 7 6 4 3 3 1 4 7 6 5 10 12 11 11 9 7 5 4 4 4 6 7 6 1 4 5 6 5 6 7 7 9 9 11 14 13 12 12 12 12 14 15 15 15 15 14 13
7 7 6 7 6 5 4 1 3 4 4 5 7 10 11 11 11 11 11 11 10 11 11 11 11 11 11 11 10 9 8 6 6 6 6 7 9 10 8 6 7 7 5 4 5 6 5 5 6 6 6 10 11 10 9 8 6 4 3 3 3 5 4 3 3 6 7 7 8 8 8 9 9 8 9 11 12 12 9 8 10 13 15 16 16 16 15 14
6 5 5 5 3 3 2 3 6 6 6 8 9 11 12 12 12 12 12 11 10 10 9 9 8 7 8 9 9 8 8 7 7 8 7 8 10 9 8 6 5 5 4 5 8 8 8 9 9 9 9 9 9 9 8 8 7 4 2 3 4 4 5 5 4 5 6 7 7 8 9 10 9 7 7 9 10 10 10 8 9 11 14 16 18 18 17 16
5 4 4 2 1 2 0 6 8 8 9 9 10 12 13 13 13 13 12 12 11 11 10 9 8 7 8 8 8 8 7 7 9 9 9 9 9 7 6 5 5 5 6 7 9 9 8 8 9 10 11 11 11 10 8 10 9 6 6 8 8 8 7 3 1 1 2 4 4 5 8 9 8 5 5 7 8 11 13 10 9 12 13 16 18 18 17 16
3 3 3 2 2 2 2 8 10 10 10 9 10 13 14 14 14 13 12 13 13 12 11 10 9 8 8 8 7 7 7 8 10 10 9 9 9 7 5 5 6 6 7 7 9 9 7 5 6 7 8 9 9 8 8 10 10 10 11 11 10 9 6 2 1 1 1 1 2 3 5 8 8 5 5 7 9 12 14 12 11 14 14 15 17 17 16 16
3 2 2 3 3 2 4 9 11 12 10 10 13 14 15 14 14 13 14 15 15 14 13 12 11 10 9 8 8 9 10 11 11 11 10 10 9 8 7 7 7 6 7 9 9 7 4 3 4 3 4 6 7 8 9 11 12 13 14 13 11 7 5 3 1 3 5 5 5 5 6 6 7 5 6 8 11 13 14 13 13 15 15 15 17 18 17 16
3 2 4 5 4 4 6 10 12 12 12 13 15 15 15 14 14 15 16 17 18 18 18 16 14 12 11 10 10 11 12 12 10 10 11 11 11 11 10 9 8 7 9 10 8 5 4 4 3 3 3 5 7 9 11 13 14 16 16 14 11 8 7 7 6 6 7 7 7 6 6 5 4 3 5 8 11 12 12 12 14 15 15 16 19 21 20 18
3 4 6 6 6 6 8 11 13 14 14 15 16 15 15 15 15 16 16 17 20 21 21 20 17 15 14 13 12 12 13 12 11 10 11 12 12 12 11 11 10 9 9 9 6 6 6 4 5 5 5 7 8 10 12 13 15 17 17 14 11 10 11 11 10 11 9 7 5 6 5 3 2 2 5 8 10 11 11 13 14 15 16 18 21 23 23 20
4 6 8 8 8 9 9 10 13 15 16 16 16 16 15 15 16 17 16 17 21 22 22 21 19 17 17 16 15 15 14 13 12 11 11 11 11 10 10 9 8 8 9 8 7 7 6 6 8 9 9 10 10 10 12 14 15 16 15 14 13 13 14 14 13 13 11 8 5 4 4 4 4 5 7 10 11 12 13 15 15 16 19 21 22 24 24 22
5 8 10 10 9 10 10 10 12 15 16 16 15 16 16 15 15 16 16 18 21 21 21 21 20 20 19 18 17 16 15 14 12 11 10 8 8 8 8 7 5 8 10 9 8 8 7 9 11 11 11 12 11 11 12 15 15 14 14 15 15 16 17 16 16 16 15 12 7 5 5 7 8 8 11 14 14 15 17 17 17 18 21 21 22 24 24 22
6 9 12 12 12 11 10 11 12 14 15 15 15 16 16 15 14 14 16 20 22 22 21 20 20 20 19 18 18 17 16 16 14 11 9 8 8 8 8 8 7 8 11 10 10 10 10 11 13 12 12 13 14 12 11 14 15 13 13 14 15 16 17 15 16 18 18 13 10 9 8 9 11 11 13 16 16 17 18 18 19 20 21 21 21 23 21 20
7 10 13 13 13 11 10 11 12 14 15 15 15 16 15 14 13 14 16 20 23 22 21 20 18 17 16 16 16 16 16 15 14 12 10 10 11 10 9 8 8 9 10 8 10 11 11 11 12 12 12 14 15 13 11 13 15 14 12 12 13 14 15 14 14 16 17 14 13 13 12 12 14 14 15 17 17 17 18 18 19 20 20 20 20 20 19 19
8 11 14 14 13 12 12 12 13 14 15 15 16 15 12 11 12 15 17 19 21 21 20 19 18 17 16 16 15 14 13 12 11 9 9 11 12 10 8 7 6 6 6 6 8 9 9 10 11 12 14 16 17 16 14 13 15 15 14 14 13 14 15 15 14 16 17 17 18 18 16 16 17 17 18 20 19 18 19 19 18 18 18 19 19 18 17 18
9 12 15 14 13 13 13 13 14 14 14 15 16 15 10 8 10 13 16 17 18 19 19 18 18 17 16 15 15 13 11 9 7 6 8 9 9 8 7 7 6 5 4 2 3 5 6 9 11 14 18 19 19 18 18 16 15 15 15 16 17 16 17 18 18 18 19 19 19 19 18 18 18 18 19 20 20 20 21 21 19 19 20 21 20 18 19 20
9 12 14 13 12 13 13 13 14 14 13 13 15 13 8 6 8 10 14 15 16 17 17 17 16 15 14 12 12 11 10 8 4 4 6 6 6 6 6 6 5 5 4 3 1 2 4 6 9 13 18 21 20 20 20 20 19 18 19 19 19 19 19 20 21 22 22 21 20 20 19 19 19 20 20 19 20 22 23 23 23 23 23 23 22 21 22 23
9 12 13 12 11 12 11 12 14 14 13 12 12 10 6 5 6 9 11 12 13 15 15 14 14 13 12 10 9 9 8 7 4 1 1 1 1 1 2 3 3 3 3 4 6 6 7 7 8 10 14 19 22 22 22 21 21 22 23 24 24 23 23 23 23 25 25 24 24 23 21 21 22 23 23 22 22 23 24 25 26 26 26 26 25 24 24 25
10 12 13 11 10 11 11 12 13 13 13 12 10 9 6 5 6 9 11 12 13 14 13 12 11 11 10 8 7 7 6 6 5 4 3 2 2 3 5 5 5 6 6 8 9 10 11 10 10 11 14 18 22 24 24 23 23 24 25 26 27 27 27 27 27 27 28 28 28 27 26 25 26 26 26 26 26 26 26 28 28 28 29 28 26 25 25 26
10 11 12 11 10 10 11 12 13 12 12 11 9 8 7 7 7 9 12 13 13 13 11 10 9 7 6 6 6 6 6 6 7 6 5 5 5 6 7 8 8 8 9 10 11 12 13 14 13 14 16 19 23 24 25 25 25 25 26 27 29 30 30 30 30 31 31 31 32 32 31 30 29 29 29 30 31 31 31 31 31 31 31 30 28 27 26 27
10 11 11 11 10 10 10 11 12 12 11 10 9 8 8 8 9 11 13 14 14 12 9 9 8 8 8 7 6 7 8 9 9 9 9 9 9 9 10 10 11 11 12 13 13 14 16 16 15 14 16 19 22 24 25 26 25 26 26 27 29 31 31 31 32 34 34 34 35 36 37 36 35 34 33 33 33 34 34 34 35 34 34 34 32 30 29 29
10 11 12 11 10 10 10 10 10 10 10 9 8 7 7 7 9 11 13 13 13 12 10 9 9 9 10 10 10 9 9 10 11 11 12 12 12 12 12 13 14 14 15 16 16 17 18 18 18 17 17 18 20 22 24 27 28 27 27 27 28 29 30 31 34 36 37 36 37 39 40 40 39 37 35 34 35 35 36 37 38 38 39 39 37 35 33 31
10 12 13 13 11 11 10 9 9 9 9 8 6 6 6 7 9 11 13 13 13 13 12 11 10 10 11 11 12 12 12 12 12 12 12 12 13 13 14 14 15 15 16 16 16 17 18 18 18 19 20 20 20 21 22 24 27 28 29 29 29 29 29 30 33 36 38 40 41 41 42 42 41 40 39 38 38 38 38 39 40 41 42 42 41 38 36 33
10 12 14 14 13 11 10 9 8 8 8 7 7 6 7 8 10 11 12 12 12 12 12 12 12 12 12 12 12 13 13 13 13 13 13 13 13 14 14 15 15 16 16 16 17 17 18 19 19 20 20 20 20 21 21 22 24 26 28 29 30 30 30 31 32 34 37 40 43 44 44 44 44 43 43 43 43 44 43 43 42 42 44 45 43 40 37 34
11 12 14 14 14 12 11 10 9 8 8 8 9 8 8 10 11 11 11 11 11 12 12 12 13 13 13 13 13 13 13 14 15 15 15 15 16 16 16 16 16 16 17 17 18 19 19 20 20 21 21 21 21 21 22 23 24 25 27 28 29 31 31 32 33 35 37 39 42 44 45 45 46 45 45 46 47 48 48 49 48 47 46 45 44 41 38 35
12 12 13 14 14 14 13 12 11 11 11 11 11 11 11 12 13 13 13 13 13 13 13 13 13 13 13 14 14 14 15 15 16 16 16 17 17 18 18 18 18 18 18 19 19 20 20 20 20 20 22 22 23 24 25 26 28 29 31 32 33 33 34 34 34 36 37 39 41 43 44 46 47 46 46 47 48 51 52 52 51 50 48 45 43 41 38 36
12 12 12 13 14 14 14 13 13 14 14 13 13 12 13 15 16 17 17 16 15 14 14 13 13 13 14 15 15 15 15 16 16 16 17 18 18 18 19 20 20 20 20 20 21 21 21 21 21 21 22 23 24 26 28 30 32 34 36 37 39 39 39 38 36 35 36 37 40 42 42 43 43 42 42 45 48 51 52 50 48 48 45 41 40 40 39 37
13 12 12 13 13 14 14 13 13 14 14 13 13 13 14 17 20 20 19 16 15 15 14 14 14 13 14 15 15 15 15 16 16 16 17 18 19 19 19 20 21 21 21 22 22 22 21 22 22 23 25 26 27 29 31 33 35 38 39 40 41 41 41 40 38 35 33 33 35 38 41 43 41 38 38 40 43 45 46 45 45 46 45 41 39 40 39 39
13 12 13 13 13 13 13 12 12 13 13 13 13 15 17 19 20 19 17 15 15 14 13 13 13 13 14 14 14 15 16 16 17 17 18 19 19 19 19 19 21 22 22 22 22 22 22 22 23 24 26 28 29 31 34 36 38 39 40 41 41 41 40 38 37 34 32 30 31 33 37 41 42 39 37 37 39 40 40 39 38 39 41 41 41 42 41 39
Wind_Direction
248 250 251 251 250 250 250 251 252 253 254 255 255 257 258 258 259 261 264 265 265 266 268 271 272 276 279 284 291 298 306 313 319 325 330 333 337 340 343 345 349 352 358 4 7 9 11 11 11 9 7 8 15 17 8 7 357 332 299 271 252 244 237 227 85 47 23 9 1 360 7 10 354 309 281 264 249 243 238 236 236 238 242 252 267 262 251 249
250 249 250 250 251 250 250 250 251 252 252 253 253 253 254 256 255 256 259 261 261 263 265 267 269 270 274 280 285 291 299 307 314 322 326 329 335 339 340 344 346 349 356 3 6 9 11 12 12 8 10 14 24 32 29 17 351 323 293 271 247 238 230 205 48 40 27 17 12 8 16 34 33 9 318 299 284 265 252 245 239 234 237 247 252 239 231 233
255 253 252 252 251 251 251 250 250 251 251 251 251 251 252 253 253 253 255 257 259 260 262 264 265 266 269 275 280 286 292 300 310 317 323 329 335 338 339 342 344 347 354 1 4 7 9 12 11 8 10 14 26 48 53 31 348 306 288 275 233 223 214 69 42 33 26 22 17 10 14 36 44 40 26 3 349 321 287 265 251 239 232 233 233 220 212 219
262 259 257 255 254 254 253 252 252 251 251 251 250 250 250 251 251 251 251 253 255 258 259 261 263 265 267 270 276 282 287 295 306 312 320 328 332 334 337 340 342 345 353 358 1 3 5 9 11 11 12 16 31 55 62 39 337 284 277 259 216 199 94 59 44 33 29 28 24 16 16 33 48 50 42 28 18 4 338 296 270 253 237 224 216 205 202 212
266 264 263 261 260 259 257 256 254 253 252 251 251 250 250 250 250 249 249 250 252 254 256 258 260 263 266 267 272 277 283 292 302 309 317 323 326 329 334 339 341 344 350 355 357 358 2 7 11 13 16 22 40 55 59 50 310 268 264 244 232 237 69 59 51 43 39 37 31 24 19 26 39 46 45 36 24 13 6 346 300 273 253 234 220 208 207 213
267 266 265 265 264 263 262 261 259 257 254 252 251 250 249 249 249 248 248 247 249 251 253 256 258 260 264 265 268 272 280 289 299 307 314 318 320 324 330 336 339 342 347 350 353 353 358 6 9 13 20 28 46 57 56 60 70 255 257 254 259 12 64 63 60 54 52 48 39 30 22 22 27 34 38 34 24 14 14 7 332 295 270 249 235 222 217 216
269 268 266 265 264 264 263 263 262 261 258 255 253 251 249 248 247 247 247 246 246 249 251 253 255 258 262 264 266 270 276 285 295 301 304 313 316 319 323 329 334 337 341 345 348 350 355 3 6 12 19 29 48 62 64 69 76 259 262 277 36 57 60 64 67 61 61 58 49 39 27 22 22 24 29 26 18 11 13 11 355 326 290 263 247 234 224 218
272 270 269 268 266 265 264 263 263 262 261 259 256 253 250 248 247 246 245 245 245 246 248 250 253 255 259 262 264 268 273 279 288 292 296 306 310 312 315 320 328 331 335 340 342 345 351 358 5 10 16 29 48 64 73 82 83 269 270 27 72 74 68 60 63 62 62 61 54 44 32 25 22 21 23 22 14 6 6 8 2 348 317 276 255 241 225 218
274 273 271 270 269 268 266 264 263 263 262 260 259 257 254 250 248 246 245 244 244 245 246 248 250 252 255 259 263 268 271 273 279 284 290 297 300 305 309 314 320 326 330 333 335 340 347 353 1 5 13 27 44 67 81 86 84 260 272 75 85 90 87 72 58 53 58 60 53 46 39 33 29 27 23 18 14 6 1 1 1 355 336 296 260 245 229 222
275 274 274 273 272 270 268 266 265 263 263 262 259 257 256 253 250 247 245 244 244 244 244 246 248 250 253 256 261 266 269 271 273 278 284 288 292 299 304 308 313 319 323 327 331 335 341 348 356 360 7 18 32 72 83 84 95 170 107 91 99 101 96 84 64 51 55 58 53 51 48 41 37 34 26 15 11 5 359 356 356 355 346 323 273 247 237 231
278 277 275 275 274 273 271 269 267 265 263 262 260 258 256 254 252 248 245 244 244 244 244 245 247 249 251 255 261 265 268 269 271 275 279 282 287 292 297 303 309 313 315 322 327 331 336 342 351 355 357 0 13 77 86 97 118 138 110 106 112 109 103 92 74 58 57 58 55 54 52 47 42 36 29 18 10 5 360 354 350 352 350 338 313 262 244 239
283 281 279 277 276 274 272 270 268 267 264 261 259 257 256 254 252 250 247 245 244 244 244 245 246 248 250 254 259 263 265 268 271 274 276 279 282 285 290 297 304 307 309 318 323 324 330 338 344 344 343 346 351 102 104 121 133 134 125 121 119 114 113 101 84 69 62 60 58 55 49 47 45 40 33 26 17 9 3 355 347 346 347 343 328 295 256 246
285 285 283 282 280 277 275 272 269 267 265 262 259 256 254 253 251 249 248 246 244 243 244 245 246 247 249 252 255 258 262 266 270 272 273 276 278 280 284 291 296 300 306 313 314 317 326 334 336 331 330 320 284 109 127 147 145 141 139 136 130 125 126 116 95 76 63 60 62 58 47 42 46 45 39 34 29 20 10 1 352 344 340 337 328 300 256 246
285 285 284 283 281 279 277 275 272 268 265 262 259 255 252 250 249 248 247 247 245 244 243 243 244 245 247 249 252 255 260 264 267 270 271 272 274 277 281 285 290 295 302 305 305 313 324 330 326 319 314 289 286 293 159 161 154 156 165 162 155 146 139 125 104 86 70 63 61 57 50 45 45 45 39 35 35 29 19 8 360 353 345 334 322 305 262 243
285 284 283 282 280 279 277 275 272 270 266 261 258 255 252 249 247 246 245 246 245 244 243 242 242 243 244 246 249 252 257 263 266 267 268 268 269 272 277 281 285 290 294 297 303 312 320 326 319 307 293 284 290 278 188 162 152 172 191 188 182 169 150 131 116 100 85 73 64 55 48 46 44 39 33 32 33 30 22 13 5 3 0 346 328 312 286 258
286 285 284 282 281 279 277 275 272 269 267 262 258 254 252 249 245 243 242 243 243 243 243 241 240 241 242 243 246 250 255 260 263 264 265 266 266 266 270 273 277 283 289 295 304 312 318 318 308 291 279 280 283 276 279 78 98 111 218 219 210 177 154 136 135 117 101 88 70 58 45 41 40 32 25 25 27 24 19 15 9 7 9 360 339 319 300 277
286 285 284 283 282 280 278 276 273 269 267 263 259 254 250 248 245 241 238 238 239 240 240 239 239 240 241 242 245 248 252 256 259 262 263 263 263 263 263 264 269 279 288 294 302 312 315 307 289 271 267 271 274 276 343 81 82 52 249 242 222 177 162 160 152 121 109 94 72 62 46 33 31 28 21 18 20 17 13 11 8 5 5 360 345 326 310 289
285 284 284 283 282 281 279 277 275 272 268 264 259 253 248 244 242 238 235 234 235 236 237 237 237 238 239 242 244 246 250 253 255 258 259 259 259 259 258 260 268 280 288 293 299 307 306 293 275 263 260 260 260 253 181 115 61 43 191 217 209 188 187 202 169 122 127 104 69 59 49 33 23 21 15 11 13 11 7 8 7 3 359 355 347 337 322 303
285 284 284 283 283 281 281 280 280 278 273 267 261 255 247 241 237 234 232 232 232 233 234 235 236 236 237 238 240 242 245 249 251 252 253 253 254 254 256 263 273 284 288 292 296 298 292 275 259 253 248 249 253 246 186 84 360 359 199 185 198 202 205 216 199 157 149 103 56 55 53 38 19 13 9 7 7 7 6 7 7 3 1 357 350 348 339 319
285 284 282 281 282 283 284 283 284 283 279 273 266 259 250 239 233 231 229 229 230 231 232 235 237 237 237 237 237 238 240 245 249 249 248 248 249 252 260 269 278 284 287 291 293 290 277 253 242 246 250 258 263 240 187 175 328 321 215 179 182 193 202 216 220 190 142 57 49 57 50 33 12 5 4 6 7 8 8 7 8 6 5 3 355 351 346 331
284 280 278 279 282 286 288 286 285 285 284 281 273 262 250 237 229 227 226 227 227 229 230 233 236 237 238 239 239 240 239 242 245 246 246 247 250 256 264 272 280 284 283 282 281 277 265 246 248 261 269 281 280 217 199 201 230 217 185 179 183 196 211 222 240 243 29 27 39 48 36 21 8 4 9 14 13 11 10 8 10 5 0 2 359 351 344 334
280 276 277 279 284 292 294 290 287 287 288 286 277 262 247 234 226 224 224 224 226 227 228 230 233 236 238 240 242 242 241 241 242 244 246 248 255 261 266 273 278 278 274 273 274 275 269 264 271 284 295 299 264 213 206 195 193 191 187 194 204 219 251 50 38 9 26 31 36 41 34 22 17 17 23 25 16 11 12 11 8 0 356 1 1 353 342 333
276 275 279 281 288 298 299 293 289 290 293 286 268 247 233 224 221 220 220 221 223 225 226 228 232 235 238 240 241 241 240 241 242 244 247 251 257 261 265 269 269 268 269 276 285 294 297 296 294 297 300 283 233 210 200 188 189 194 201 214 226 248 356 24 2 355 77 90 63 57 50 38 36 34 33 28 19 15 18 14 8 2 357 358 358 353 346 335
275 279 284 286 293 300 300 297 293 293 295 276 242 219 210 208 209 211 213 216 219 222 224 225 229 232 236 239 241 242 243 245 247 248 250 250 252 255 254 252 253 253 251 254 271 315 334 319 306 306 288 248 217 201 193 190 196 210 224 235 253 303 352 347 331 287 138 107 89 83 72 53 48 45 36 27 22 21 16 10 6 359 352 350 350 351 350 343
278 284 288 291 298 300 303 306 299 293 287 238 205 187 183 184 190 194 200 206 210 214 218 222 225 227 232 238 242 246 247 249 251 251 248 241 236 234 227 227 235 229 210 192 178 21 1 321 306 307 270 227 210 199 195 195 202 224 244 248 266 299 319 325 332 146 135 106 90 85 78 56 42 38 32 26 23 18 8 4 3 355 351 350 347 348 350 348
281 288 292 299 302 299 309 318 284 158 171 177 162 153 153 157 166 174 182 191 199 206 212 216 220 224 229 235 241 242 241 240 238 235 229 218 211 209 202 203 214 211 197 173 129 99 46 296 291 288 243 217 212 206 198 190 189 212 231 235 264 293 303 302 316 107 98 83 64 56 54 41 30 24 26 26 18 8 3 6 8 3 360 355 349 347 349 349
282 292 300 307 304 303 326 14 137 138 146 147 137 134 134 136 143 153 163 173 182 191 201 204 208 215 216 219 223 220 216 212 200 199 201 200 199 196 188 191 209 212 200 161 130 129 156 208 236 228 207 208 209 202 187 175 174 197 222 220 252 276 265 220 129 94 81 65 45 31 22 21 21 10 16 22 11 3 6 9 11 10 7 2 355 351 351 352
283 298 305 309 301 307 347 130 142 138 140 140 134 130 127 129 133 139 148 157 163 164 168 175 180 188 192 197 204 200 198 195 183 181 188 192 194 191 186 198 211 209 200 170 157 164 181 198 204 190 180 183 186 183 174 168 174 192 203 176 191 201 176 157 118 90 74 51 34 18 4 6 11 357 1 13 3 358 355 349 360 6 5 6 4 359 356 357
286 298 298 288 247 288 182 149 148 142 149 152 144 136 132 130 130 133 137 138 143 144 144 150 155 165 176 180 190 193 187 179 173 175 185 188 188 189 192 204 200 190 194 183 177 191 207 212 203 187 179 175 176 180 172 162 167 178 177 171 173 170 162 159 181 144 70 33 14 359 354 359 8 359 349 355 346 343 341 337 347 355 358 5 8 5 3 5
280 286 273 211 192 255 165 158 154 151 161 164 152 144 139 134 131 134 135 131 133 135 137 144 145 150 159 160 169 174 162 161 167 171 183 188 186 186 187 194 196 191 191 190 194 209 220 221 215 201 197 192 183 179 174 170 177 184 183 181 180 175 168 174 300 247 247 332 317 319 334 347 359 343 306 322 327 327 330 327 328 335 344 358 4 7 9 11
255 252 220 174 178 200 162 165 164 160 167 164 154 149 144 141 136 133 134 131 130 130 129 131 134 137 143 146 153 155 150 154 163 168 179 186 181 180 184 188 192 186 185 197 210 218 206 202 228 234 227 210 186 178 182 184 187 191 194 194 189 181 173 175 211 257 235 237 259 282 301 326 348 328 291 306 317 315 318 321 321 322 331 348 357 4 10 12
219 207 184 167 174 181 165 170 171 166 167 161 155 153 150 148 140 135 140 136 128 126 123 120 124 127 127 128 133 141 144 149 159 170 181 185 181 180 186 188 183 176 186 203 213 205 181 182 210 216 222 212 190 187 196 198 198 199 203 201 191 187 193 202 224 238 237 240 251 282 308 322 342 325 289 300 305 303 310 321 323 320 326 341 351 357 3 7
199 180 170 168 176 177 169 172 173 170 168 163 159 159 158 154 147 146 150 141 132 131 127 123 123 122 120 118 118 126 137 146 158 169 179 186 187 187 191 195 190 183 190 196 193 189 183 178 185 193 222 235 218 208 212 213 209 206 206 203 198 203 207 218 235 235 241 251 257 295 310 297 296 277 277 293 292 292 308 321 322 321 327 338 347 351 352 356
186 168 166 172 181 179 173 173 175 172 170 166 163 163 164 161 156 155 154 146 140 138 136 133 131 128 127 125 125 132 143 152 162 171 181 188 190 190 192 198 197 185 182 181 181 194 191 174 189 208 230 246 247 242 239 233 223 218 217 211 212 222 222 228 239 236 235 241 255 296 280 252 270 266 272 287 286 287 303 316 320 325 333 340 346 348 346 346
176 167 168 178 187 185 178 173 174 174 172 169 167 167 168 169 166 163 158 152 147 144 144 144 141 140 140 139 141 145 150 155 161 169 177 178 177 174 170 174 178 170 171 174 185 204 202 181 190 214 237 251 260 263 255 244 237 238 240 232 228 240 241 239 245 247 244 243 252 267 252 256 272 273 279 286 289 294 303 313 320 329 337 340 343 344 341 339
172 171 173 183 193 190 181 174 173 175 172 168 167 170 174 178 176 173 166 158 155 154 154 153 150 150 152 152 153 155 157 160 162 166 170 162 157 157 153 153 159 165 171 181 195 208 211 199 200 219 243 259 266 269 258 244 240 242 248 246 243 249 252 250 251 252 250 249 253 259 262 265 268 273 281 285 294 302 305 311 317 325 331 332 333 336 335 334
172 175 178 188 198 194 183 176 171 170 165 161 165 171 177 184 183 180 175 165 163 163 159 156 155 155 157 155 156 159 160 162 164 170 174 165 157 158 157 153 154 166 178 193 206 213 218 218 225 236 247 259 267 270 265 249 243 241 244 255 259 259 260 260 256 254 255 256 259 265 268 265 268 273 277 282 293 301 301 306 314 320 322 322 324 327 329 332
173 177 183 194 202 196 187 181 174 168 163 160 166 170 173 184 186 184 183 174 168 167 163 160 159 157 153 151 154 159 160 164 170 167 161 159 159 160 162 155 149 166 185 201 214 226 234 235 248 260 259 261 265 268 267 258 252 247 246 254 263 268 268 266 263 260 261 262 263 268 269 266 270 272 270 276 285 291 294 299 307 312 312 313 316 320 324 328
175 180 189 198 204 199 193 188 181 174 169 167 172 176 177 186 190 192 194 187 176 170 167 167 166 164 160 156 156 161 164 172 175 147 135 144 148 137 124 115 105 113 131 150 196 224 237 235 249 265 265 262 263 263 263 263 263 260 257 256 258 264 268 268 268 267 267 268 266 268 269 267 269 270 271 275 279 281 285 290 294 297 299 303 306 310 316 320
179 185 196 202 205 205 201 195 188 183 181 177 178 185 192 191 194 200 203 200 189 178 173 173 173 174 174 169 164 168 178 187 177 125 117 123 122 103 84 78 75 76 70 42 359 266 254 241 249 264 268 268 265 261 259 262 266 269 269 267 266 268 272 272 271 269 269 268 267 267 268 268 269 271 274 275 275 278 280 283 287 289 292 297 298 301 309 313
184 191 201 206 208 210 209 202 195 191 192 190 188 196 205 199 199 205 208 205 194 185 181 180 180 181 184 182 174 176 189 209 218 183 142 109 103 54 16 8 349 343 329 317 308 296 288 271 257 262 269 271 270 267 265 263 263 265 267 270 272 273 275 276 274 272 271 268 266 266 266 267 268 270 273 274 276 277 279 281 284 286 290 293 294 297 305 309
191 196 202 208 210 210 211 210 202 198 201 202 203 211 220 223 214 204 204 202 191 183 180 182 185 185 187 191 192 190 196 215 233 239 240 248 268 294 311 315 312 308 297 292 290 287 288 282 272 270 271 270 267 268 272 273 272 270 268 268 270 271 272 273 271 270 270 269 268 268 266 267 269 271 273 275 276 276 277 280 283 286 289 291 292 296 301 306
199 201 204 209 211 206 209 213 207 204 206 207 210 220 229 238 229 205 197 199 197 190 185 189 196 201 203 207 218 226 230 238 248 253 258 265 274 284 290 293 295 294 289 288 286 286 288 285 281 280 279 275 271 268 272 275 276 276 274 271 271 271 271 271 269 267 265 266 268 268 268 268 269 272 275 276 277 276 277 279 281 285 287 288 288 291 296 301
204 207 209 211 211 206 206 209 207 202 202 204 210 221 228 229 223 208 199 200 205 206 203 202 209 222 229 231 234 241 248 256 262 267 272 276 280 284 287 290 293 295 295 294 295 296 294 291 288 282 276 275 276 277 278 278 276 274 273 273 272 271 272 272 271 269 266 265 266 267 268 268 269 272 275 276 276 276 277 278 280 282 284 284 285 288 290 295
208 210 213 214 213 210 205 202 200 196 193 197 202 211 219 216 209 205 202 203 208 214 217 216 216 225 236 243 248 249 251 255 261 268 274 279 285 291 295 298 300 301 302 301 301 300 296 294 292 286 278 273 273 275 278 281 282 280 278 275 273 272 272 271 271 271 271 269 267 267 268 268 269 271 273 273 273 274 275 276 278 280 280 281 282 283 285 288
214 213 216 216 214 213 208 200 196 191 188 190 188 188 205 212 205 201 201 202 205 209 216 221 223 227 234 243 251 257 261 264 268 274 279 283 289 294 296 296 297 297 298 299 299 297 295 294 292 288 285 281 277 274 273 275 279 282 282 281 279 277 273 271 269 269 271 271 269 268 267 267 268 269 269 270 271 271 271 272 273 275 277 278 279 279 280 282
223 220 220 219 215 213 211 205 199 193 190 192 188 183 195 209 208 203 202 204 204 205 212 220 226 231 235 240 247 255 264 274 280 286 290 294 296 295 293 293 294 295 298 302 302 302 301 300 298 294 290 286 282 279 276 272 271 272 274 275 276 276 275 272 270 268 268 268 268 268 268 267 267 266 266 267 268 268 268 267 266 267 270 273 274 275 275 276
226 225 223 223 218 212 209 207 203 199 196 197 198 196 199 210 218 218 216 216 216 215 218 222 229 236 241 246 251 255 263 272 280 286 292 296 297 297 298 299 302 305 308 309 308 307 305 303 302 299 297 295 293 291 289 287 285 283 282 280 279 277 274 272 269 267 265 264 265 266 267 266 265 264 263 264 265 265 264 263 261 260 261 265 268 270 272 271
227 226 225 224 221 214 210 208 206 204 202 203 205 203 201 206 217 227 231 230 230 230 230 233 236 242 248 253 258 261 265 270 276 282 288 291 295 299 303 308 311 312 312 311 308 307 304 302 300 299 298 298 299 299 299 299 299 298 296 295 294 291 287 281 275 269 265 262 262 262 263 264 264 263 262 261 262 262 262 262 261 256 252 254 259 265 267 268
228 227 223 221 219 215 212 211 210 210 211 212 212 208 206 208 214 224 231 233 233 235 239 242 242 242 246 251 257 263 269 273 276 281 285 289 295 300 305 310 313 313 312 309 306 305 303 302 303 302 301 301 302 302 302 302 302 303 302 302 301 300 297 293 287 279 272 267 264 263 262 262 263 263 262 261 262 261 259 259 259 256 250 247 252 259 262 263
227 226 222 219 217 214 213 213 214 218 221 222 221 216 212 213 216 222 229 232 234 235 238 240 240 239 241 246 253 259 266 271 276 281 285 289 294 300 304 309 310 309 308 307 306 306 306 305 306 306 305 305 305 305 306 306 307 307 306 306 305 303 300 297 294 289 282 274 268 265 264 262 263 263 261 260 261 259 256 256 257 256 252 248 249 254 257 259
225 223 219 218 216 213 211 210 212 219 224 224 222 218 213 213 216 221 226 230 233 233 231 232 236 238 242 247 252 257 262 269 275 280 284 289 295 300 303 305 305 305 305 305 305 305 305 304 305 305 304 304 305 306 307 309 309 308 307 306 304 302 300 298 296 294 290 283 275 268 265 263 263 265 263 261 260 259 258 258 258 257 253 251 252 252 252 255